Location: Croissy-Beaubourg
(48.8283°N, 2.6696°E)
Time: 23:36:38
(UTC+00:00)

Cosmos 2082 - Pass Details

Date: 25 August 2022
Orbit: 832 x 856 km, 71.0° (Epoch: 28 September)

Event Time Altitude Azimuth Distance (km) Brightness Sun altitude
Rises 23:55:44 0° 336° (NNW) 3,410 7.8 -30.3°
Reaches altitude 10° 23:58:54 10° 353° (N) 2,477 7.0 -30.3°
Maximum altitude 00:02:59 20° 39° (NE) 1,876 6.0 -30.3°
Drops below altitude 10° 00:07:05 10° 86° (E) 2,480 6.2 -30.2°
Enters shadow 00:08:47 - 96° (E) 2,961 6.5 -30.2°
